Hourly Data Report for October 11, 2004

SHERBROOKE A
QUEBEC

45°26'00.000" N
71°41'00.000" W
241.40 m
7028124
71610
YSC

Download Data

Hourly Data (October 2004)
Hourly Data Report for October 11, 2004
TIME
LST
Temp Definition
°C
Dew Point Definition
°C
Rel Hum Definition
%
Precip. Amount Definition
mm

Wind Dir Definition
10's deg

Wind Spd Definition
km/h
Visibility Definition
km
Stn Press Definition
kPa
Hmdx Definition


Wind Chill Definition


Weather Definition


00:00 7.9 4.6 80   32 6 15.0 98.86      
01:00 7.7 4.6 81   34 6 15.0 98.85      
02:00 7.6 4.4 80   35 11 15.0 98.82      
03:00 7.4 4.7 83   2 6 15.0 98.85     Drizzle
04:00 7.2 4.8 85   34 6 15.0 98.88      
05:00 7.1 5.0 86   35 6 15.0 98.95      
06:00 6.8 5.0 88   36 6 15.0 99.02     Rain
07:00 6.9 4.9 87   2 15 19.3 99.08     Drizzle
08:00 7.0 4.9 86   2 11 19.3 99.09     Cloudy
09:00 7.6 3.0 73   3 11 19.3 99.13     Cloudy
10:00 8.8 2.4 64   5 17 24.1 99.10     Mostly Cloudy
11:00 8.9 2.6 65   4 17 24.1 99.06     Mostly Cloudy
12:00 9.0 3.5 68   4 13 24.1 99.05     Cloudy
13:00 8.7 4.0 72   4 7 24.1 99.01     Cloudy
14:00 8.8 4.4 74   2 9 24.1 98.97     Cloudy
15:00 8.3 4.6 77   4 11 24.1 98.96     Cloudy
16:00 7.9 4.7 80   34 9 24.1 98.96     Cloudy
17:00 7.7 4.5 80   35 9 15.0 98.94      
18:00 7.7 4.0 77   3 7 15.0 98.93      
19:00 7.7 4.0 77   35 9 15.0 98.86      
20:00 7.4 4.1 80   34 6 15.0 98.80      
21:00 6.9 3.8 81   36 7 15.0 98.77      
22:00 7.0 3.7 79   36 9 15.0 98.71      
23:00 6.7 3.7 81   32 11 15.0 98.56      

Notes on Data Quality.

Legend

  • E = Estimated
  • M = Missing
  • NA = Not Available*
  • [empty] = Indicates an unobserved value
Date modified: